Extreme high temperature From: 16-07-2018 05:00 Until: 19:00 warning for: Extreme high temperature Level: Yellow info button
suomi:
Hellevaroitus: Lähivuorokauden aikana on odotettavissa tukalaa hellettä.

svenska:
Varning för värmebölja: Under det närmaste dygnet är den svåra hettan att vänta.

english:
Heat wave warning: Warm weather is expected during the coming 24 hours. 


Thunder radar more information blitzortung!


Löydät sääaseman tiedot myös:

European Weather Network

Finland Weather Exchange

Weather Underground

AWEKAS



Weather Underground säähistoriasivu

Päivittäin yhteenveto Heinäkuu 19, 2017 Yksiköt:  Englantilaiset    Metriset   Molemmat
« Edellinen Päivä
Seuraava Päivä »
Päivittäin Viikoittain Kuukausittain Vuosittain Mukautettu
  Korkea: Matala: Keskiarvo:
Lämpötila: TemperatureC °F 10.1 °F 11.3 °F
Kastepiste: DewpointC °F 9.0 °F 9.9 °F
Kosteus: Humidity % 86 % 91 %
Tuulen nopeus: WindSpeedKMH mph 0.0 mph 2.7 mph
Tuulenpuuska: WindSpeedGustKMH mph - -
Tuuli:- - WNW
Ilmanpaine: PressurehPa in 1008.4 in -
Sade: 1.5 in    
Historical Graphs
 
 
Taulukkotiedot Heinäkuu 19, 2017
Aika Lämpötila Kastepiste Ilmanpaine Tuuli Tuulen nopeus Tuulenpuuska Kosteus Sademäärä (tunneittain)
TemperatureC °F DewpointC °F PressurehPa in Calm     Humidity % HourlyPrecipMM in
00:00 10.6 °F 9.5 °F 1008.7 in Calm     93 % 0.3 in
00:15 10.4 °F 9.4 °F 1008.4 in Calm     93 % 0.0 in
00:30 10.4 °F 9.3 °F 1008.7 in Calm     93 % 0.0 in
00:45 10.3 °F 9.3 °F 1008.4 in Calm     93 % 0.0 in
01:00 10.3 °F 9.2 °F 1008.7 in Calm   1.6 mph 93 % 0.0 in
01:15 10.2 °F 9.1 °F 1008.7 in Calm   3.2 mph 93 % 0.3 in
01:30 10.2 °F 9.1 °F 1008.7 in Calm   6.4 mph 93 % 0.3 in
01:45 10.1 °F 9.0 °F 1008.7 in Calm   1.6 mph 93 % 0.3 in
02:00 10.1 °F 9.1 °F 1008.7 in Calm   4.8 mph 94 % 0.5 in
02:15 10.1 °F 9.1 °F 1008.4 in Calm   3.2 mph 94 % 0.3 in
02:30 10.1 °F 9.1 °F 1008.4 in SSW 1.6 mph 6.4 mph 94 % 0.3 in
02:45 10.1 °F 9.2 °F 1008.4 in West 1.6 mph 8.0 mph 94 % 0.3 in
03:00 10.2 °F 9.2 °F 1008.4 in West 1.6 mph 9.7 mph 94 % 0.3 in
03:15 10.2 °F 9.4 °F 1008.4 in SW 1.6 mph 4.8 mph 95 % 0.5 in
03:30 10.2 °F 9.4 °F 1008.4 in SW 1.6 mph 8.0 mph 95 % 0.5 in
03:45 10.2 °F 9.5 °F 1008.4 in WSW 1.6 mph 8.0 mph 95 % 0.5 in
03:50 10.2 °F 9.4 °F 1008.4 in WNW 3.2 mph 11.3 mph 95 % 0.5 in
03:55 10.2 °F 9.4 °F 1008.4 in West 1.6 mph 11.3 mph 95 % 0.5 in
04:00 10.2 °F 9.4 °F 1008.4 in Calm   6.4 mph 95 % 0.5 in
04:05 10.3 °F 9.5 °F 1008.4 in South 1.6 mph 11.3 mph 95 % 0.5 in
04:10 10.3 °F 9.5 °F 1008.4 in South 1.6 mph 11.3 mph 95 % 0.5 in
04:15 10.3 °F 9.5 °F 1008.4 in WSW 1.6 mph 9.7 mph 95 % 0.3 in
04:20 10.3 °F 9.5 °F 1008.4 in Calm   6.4 mph 95 % 0.3 in
04:25 10.3 °F 9.6 °F 1008.4 in Calm   12.9 mph 95 % 0.3 in
04:30 10.3 °F 9.6 °F 1008.4 in WSW 3.2 mph 17.7 mph 95 % 0.3 in
04:35 10.3 °F 9.6 °F 1008.4 in West 1.6 mph 17.7 mph 95 % 0.3 in
04:40 10.3 °F 9.6 °F 1008.4 in West 1.6 mph 9.7 mph 95 % 0.3 in
04:45 10.3 °F 9.6 °F 1008.4 in WSW 1.6 mph 8.0 mph 95 % 0.3 in
04:50 10.3 °F 9.6 °F 1008.4 in SW 1.6 mph 9.7 mph 95 % 0.0 in
04:55 10.3 °F 9.6 °F 1008.4 in WSW 3.2 mph 9.7 mph 95 % 0.0 in
05:00 10.3 °F 9.6 °F 1008.4 in West 1.6 mph 12.9 mph 95 % 0.0 in
05:05 10.3 °F 9.6 °F 1008.4 in NW 3.2 mph 14.5 mph 95 % 0.0 in
05:10 10.3 °F 9.6 °F 1008.4 in Calm   14.5 mph 95 % 0.0 in
05:15 10.3 °F 9.6 °F 1008.4 in WNW 3.2 mph 9.7 mph 95 % 0.0 in
05:20 10.3 °F 9.5 °F 1008.4 in WNW 3.2 mph 11.3 mph 95 % 0.0 in
05:25 10.2 °F 9.3 °F 1008.4 in WNW 3.2 mph 19.3 mph 94 % 0.0 in
05:30 10.2 °F 9.3 °F 1008.4 in WNW 3.2 mph 19.3 mph 94 % 0.0 in
05:35 10.2 °F 9.2 °F 1008.4 in Calm   11.3 mph 94 % 0.0 in
05:40 10.2 °F 9.2 °F 1008.4 in West 3.2 mph 14.5 mph 94 % 0.0 in
05:45 10.2 °F 9.2 °F 1008.4 in Calm   14.5 mph 94 % 0.0 in
05:50 10.2 °F 9.2 °F 1008.4 in West 1.6 mph 6.4 mph 94 % 0.3 in
05:55 10.2 °F 9.4 °F 1008.4 in WNW 1.6 mph 9.7 mph 95 % 0.3 in
06:00 10.2 °F 9.4 °F 1008.4 in West 1.6 mph 9.7 mph 95 % 0.3 in
06:05 10.2 °F 9.4 °F 1008.4 in Calm   9.7 mph 95 % 0.3 in
06:10 10.2 °F 9.4 °F 1008.4 in WNW 3.2 mph 12.9 mph 95 % 0.3 in
06:15 10.2 °F 9.4 °F 1008.4 in West 1.6 mph 12.9 mph 95 % 0.3 in
06:20 10.2 °F 9.4 °F 1008.4 in Calm   9.7 mph 95 % 0.3 in
06:25 10.2 °F 9.3 °F 1008.4 in WNW 1.6 mph 9.7 mph 94 % 0.3 in
06:30 10.2 °F 9.2 °F 1008.4 in WNW 1.6 mph 9.7 mph 94 % 0.3 in
06:35 10.2 °F 9.2 °F 1008.4 in NNW 1.6 mph 9.7 mph 94 % 0.5 in
06:40 10.2 °F 9.4 °F 1008.4 in NW 3.2 mph 11.3 mph 95 % 0.5 in
06:45 10.2 °F 9.4 °F 1008.4 in Calm   11.3 mph 95 % 0.5 in
06:50 10.2 °F 9.3 °F 1008.4 in NW 3.2 mph 11.3 mph 94 % 0.3 in
06:55 10.2 °F 9.4 °F 1008.4 in WNW 1.6 mph 11.3 mph 95 % 0.3 in
07:00 10.3 °F 9.6 °F 1008.4 in WNW 1.6 mph 8.0 mph 95 % 0.3 in
07:05 10.3 °F 9.6 °F 1008.4 in West 3.2 mph 11.3 mph 95 % 0.3 in
07:10 10.4 °F 9.6 °F 1008.7 in West 1.6 mph 11.3 mph 95 % 0.3 in
07:15 10.4 °F 9.6 °F 1008.4 in Calm   8.0 mph 95 % 0.3 in
07:20 10.4 °F 9.5 °F 1008.4 in NNW 1.6 mph 8.0 mph 94 % 0.3 in
07:25 10.4 °F 9.7 °F 1008.7 in Calm   8.0 mph 95 % 0.3 in
07:30 10.5 °F 9.6 °F 1008.7 in West 3.2 mph 12.9 mph 94 % 0.3 in
07:35 10.5 °F 9.6 °F 1008.7 in West 3.2 mph 12.9 mph 94 % 0.0 in
07:40 10.6 °F 9.6 °F 1008.7 in WSW 1.6 mph 11.3 mph 94 % 0.0 in
07:45 10.6 °F 9.6 °F 1008.7 in West 1.6 mph 9.7 mph 94 % 0.0 in
07:50 10.6 °F 9.6 °F 1008.7 in West 1.6 mph 9.7 mph 94 % 0.0 in
07:55 10.6 °F 9.8 °F 1008.4 in Calm   8.0 mph 95 % 0.0 in
08:00 10.7 °F 9.7 °F 1008.7 in West 1.6 mph 9.7 mph 94 % 0.0 in
08:05 10.7 °F 9.7 °F 1008.7 in WNW 3.2 mph 9.7 mph 94 % 0.0 in
08:10 10.7 °F 9.7 °F 1008.7 in NW 1.6 mph 9.7 mph 94 % 0.0 in
08:15 10.7 °F 9.8 °F 1008.7 in NW 1.6 mph 14.5 mph 94 % 0.0 in
08:20 10.7 °F 9.8 °F 1008.7 in NW 3.2 mph 14.5 mph 94 % 0.0 in
08:25 10.8 °F 9.8 °F 1008.7 in WNW 1.6 mph 9.7 mph 94 % 0.0 in
08:30 10.8 °F 9.7 °F 1008.7 in WNW 3.2 mph 11.3 mph 93 % 0.0 in
08:35 10.8 °F 9.7 °F 1008.7 in NW 4.8 mph 16.1 mph 93 % 0.0 in
08:40 10.8 °F 9.7 °F 1008.7 in NW 3.2 mph 16.1 mph 93 % 0.0 in
08:45 10.9 °F 10.0 °F 1008.7 in WNW 3.2 mph 9.7 mph 94 % 0.0 in
08:50 11.0 °F 10.1 °F 1008.7 in WNW 1.6 mph 9.7 mph 94 % 0.0 in
08:55 11.1 °F 9.9 °F 1008.7 in NW 6.4 mph 17.7 mph 93 % 0.0 in
09:00 11.0 °F 9.9 °F 1009.0 in WNW 3.2 mph 17.7 mph 93 % 0.0 in
09:05 11.0 °F 9.9 °F 1008.7 in NW 4.8 mph 17.7 mph 93 % 0.0 in
09:10 10.9 °F 9.7 °F 1008.7 in NW 4.8 mph 14.5 mph 92 % 0.0 in
09:15 11.0 °F 9.7 °F 1009.0 in NW 3.2 mph 14.5 mph 92 % 0.0 in
09:20 11.0 °F 9.9 °F 1009.0 in NW 3.2 mph 12.9 mph 93 % 0.0 in
09:25 11.1 °F 9.9 °F 1009.0 in NW 3.2 mph 12.9 mph 93 % 0.0 in
09:30 11.1 °F 9.9 °F 1009.0 in WNW 3.2 mph 12.9 mph 93 % 0.0 in
09:35 11.1 °F 10.0 °F 1009.0 in WNW 3.2 mph 12.9 mph 93 % 0.0 in
09:40 11.2 °F 10.1 °F 1009.0 in NW 1.6 mph 11.3 mph 93 % 0.0 in
09:45 11.2 °F 9.9 °F 1009.0 in NW 4.8 mph 11.3 mph 92 % 0.0 in
09:50 11.2 °F 9.9 °F 1009.0 in NW 4.8 mph 11.3 mph 92 % 0.0 in
09:55 11.2 °F 9.9 °F 1009.0 in NW 3.2 mph 11.3 mph 92 % 0.0 in
10:00 11.2 °F 9.9 °F 1009.0 in NW 4.8 mph 14.5 mph 92 % 0.0 in
10:05 11.2 °F 10.1 °F 1009.0 in NW 3.2 mph 14.5 mph 93 % 0.0 in
10:10 11.3 °F 10.0 °F 1009.0 in NW 3.2 mph 12.9 mph 92 % 0.0 in
10:15 11.2 °F 9.9 °F 1009.0 in NW 4.8 mph 16.1 mph 92 % 0.0 in
10:20 11.2 °F 9.9 °F 1009.0 in NW 4.8 mph 16.1 mph 92 % 0.0 in
10:25 11.3 °F 10.0 °F 1009.0 in WNW 4.8 mph 14.5 mph 92 % 0.0 in
10:30 11.3 °F 10.1 °F 1009.0 in NW 4.8 mph 14.5 mph 92 % 0.0 in
10:35 11.3 °F 9.9 °F 1009.4 in NW 4.8 mph 14.5 mph 91 % 0.0 in
10:40 11.3 °F 10.1 °F 1009.4 in NW 1.6 mph 11.3 mph 92 % 0.0 in
10:45 11.3 °F 10.1 °F 1009.4 in NNW 3.2 mph 8.0 mph 92 % 0.0 in
10:50 11.3 °F 10.2 °F 1009.4 in NW 3.2 mph 12.9 mph 93 % 0.0 in
10:55 11.3 °F 10.2 °F 1009.7 in NW 3.2 mph 12.9 mph 93 % 0.0 in
11:00 11.2 °F 9.9 °F 1009.7 in NW 4.8 mph 12.9 mph 92 % 0.0 in
11:05 11.3 °F 10.2 °F 1009.7 in WNW 3.2 mph 11.3 mph 93 % 0.0 in
11:10 11.4 °F 10.3 °F 1009.7 in NW 1.6 mph 8.0 mph 93 % 0.0 in
11:15 11.6 °F 10.3 °F 1009.7 in NW 3.2 mph 9.7 mph 92 % 0.0 in
11:20 11.6 °F 10.2 °F 1009.7 in NW 4.8 mph 16.1 mph 91 % 0.0 in
11:25 11.6 °F 10.3 °F 1009.7 in NNW 3.2 mph 16.1 mph 92 % 0.0 in
11:30 11.6 °F 10.3 °F 1009.7 in NW 6.4 mph 12.9 mph 92 % 0.0 in
11:35 11.6 °F 10.3 °F 1009.7 in WNW 1.6 mph 14.5 mph 92 % 0.0 in
11:40 11.6 °F 10.3 °F 1009.7 in NW 6.4 mph 17.7 mph 92 % 0.0 in
11:45 11.6 °F 10.3 °F 1009.7 in NW 3.2 mph 17.7 mph 92 % 0.0 in
11:50 11.8 °F 10.3 °F 1009.7 in NW 4.8 mph 12.9 mph 91 % 0.0 in
11:55 11.8 °F 10.4 °F 1010.0 in NW 4.8 mph 14.5 mph 91 % 0.0 in
12:00 11.9 °F 10.4 °F 1010.0 in NW 4.8 mph 14.5 mph 91 % 0.0 in
12:05 12.0 °F 10.6 °F 1010.0 in NW 3.2 mph 14.5 mph 91 % 0.0 in
12:10 12.1 °F 10.5 °F 1010.0 in NW 1.6 mph 12.9 mph 90 % 0.0 in
12:15 12.2 °F 10.6 °F 1010.0 in NW 3.2 mph 12.9 mph 90 % 0.0 in
12:20 12.2 °F 10.4 °F 1010.0 in NW 8.0 mph 14.5 mph 89 % 0.0 in
12:25 12.2 °F 10.6 °F 1010.0 in NW 4.8 mph 14.5 mph 90 % 0.0 in
12:30 12.3 °F 10.5 °F 1010.0 in NW 3.2 mph 11.3 mph 89 % 0.0 in
12:35 12.3 °F 10.6 °F 1010.4 in NW 4.8 mph 19.3 mph 89 % 0.0 in
12:40 12.4 °F 10.5 °F 1010.0 in NW 8.0 mph 20.9 mph 88 % 0.0 in
12:45 12.4 °F 10.7 °F 1010.4 in NNW 4.8 mph 20.9 mph 89 % 0.0 in
12:50 12.4 °F 10.5 °F 1010.4 in NW 6.4 mph 20.9 mph 88 % 0.0 in
12:55 12.3 °F 10.7 °F 1010.4 in NW 3.2 mph 17.7 mph 90 % 0.0 in
13:00 12.3 °F 10.7 °F 1010.4 in WNW 3.2 mph 11.3 mph 90 % 0.0 in
13:05 12.2 °F 10.6 °F 1010.4 in NNW 6.4 mph 14.5 mph 90 % 0.0 in
13:10 12.1 °F 10.5 °F 1010.4 in NW 6.4 mph 17.7 mph 90 % 0.0 in
13:15 12.1 °F 10.5 °F 1010.4 in NW 6.4 mph 17.7 mph 90 % 0.0 in
13:20 12.3 °F 10.7 °F 1010.7 in NNW 3.2 mph 16.1 mph 90 % 0.0 in
13:25 12.4 °F 10.7 °F 1010.4 in NW 4.8 mph 14.5 mph 89 % 0.0 in
13:30 12.5 °F 10.7 °F 1010.7 in NW 4.8 mph 14.5 mph 89 % 0.0 in
13:35 12.5 °F 10.7 °F 1010.7 in NW 3.2 mph 14.5 mph 89 % 0.0 in
13:40 12.4 °F 10.5 °F 1010.7 in NNW 3.2 mph 11.3 mph 88 % 0.0 in
13:45 12.4 °F 10.6 °F 1010.7 in NW 3.2 mph 11.3 mph 89 % 0.0 in
13:50 12.3 °F 10.4 °F 1010.7 in NW 3.2 mph 9.7 mph 88 % 0.0 in
13:55 12.3 °F 10.5 °F 1010.7 in NNW 4.8 mph 16.1 mph 89 % 0.0 in
14:00 12.3 °F 10.5 °F 1011.1 in NNW 6.4 mph 16.1 mph 89 % 0.0 in
14:05 12.2 °F 10.4 °F 1011.1 in North 3.2 mph 16.1 mph 89 % 0.0 in
14:10 12.1 °F 10.3 °F 1011.1 in NNE 4.8 mph 12.9 mph 89 % 0.0 in
14:15 11.9 °F 10.3 °F 1011.1 in North 3.2 mph 12.9 mph 90 % 0.0 in
14:20 11.9 °F 10.3 °F 1011.1 in NNW 4.8 mph 19.3 mph 90 % 0.0 in
14:25 11.8 °F 10.4 °F 1011.1 in NW 4.8 mph 19.3 mph 91 % 0.0 in
14:30 11.9 °F 10.3 °F 1011.1 in NW 3.2 mph 12.9 mph 90 % 0.0 in
14:35 11.9 °F 10.2 °F 1011.1 in NW 6.4 mph 17.7 mph 89 % 0.0 in
14:40 11.9 °F 10.2 °F 1011.4 in NW 4.8 mph 17.7 mph 89 % 0.0 in
14:45 11.9 °F 10.2 °F 1011.4 in NW 3.2 mph 11.3 mph 89 % 0.0 in
14:50 12.0 °F 10.2 °F 1011.4 in NW 4.8 mph 14.5 mph 89 % 0.0 in
14:55 12.0 °F 10.2 °F 1011.1 in NW 3.2 mph 14.5 mph 89 % 0.0 in
15:00 12.1 °F 10.3 °F 1011.1 in NNW 4.8 mph 12.9 mph 89 % 0.0 in
15:05 12.2 °F 10.4 °F 1011.4 in NNW 6.4 mph 12.9 mph 89 % 0.0 in
15:10 12.2 °F 10.4 °F 1011.1 in NW 4.8 mph 12.9 mph 89 % 0.0 in
15:15 12.2 °F 10.4 °F 1011.1 in NW 6.4 mph 14.5 mph 89 % 0.0 in
15:20 12.1 °F 10.5 °F 1011.1 in NW 3.2 mph 14.5 mph 90 % 0.0 in
15:25 12.1 °F 10.4 °F 1011.4 in NW 6.4 mph 16.1 mph 90 % 0.0 in
15:30 12.0 °F 10.4 °F 1011.4 in NW 4.8 mph 16.1 mph 90 % 0.0 in
15:35 12.0 °F 10.4 °F 1011.4 in NNW 4.8 mph 14.5 mph 90 % 0.0 in
15:40 11.9 °F 10.3 °F 1011.4 in NNW 3.2 mph 14.5 mph 90 % 0.0 in
15:45 11.9 °F 10.3 °F 1011.4 in NW 3.2 mph 9.7 mph 90 % 0.0 in
15:50 11.8 °F 10.2 °F 1011.4 in NW 1.6 mph 9.7 mph 90 % 0.0 in
15:55 11.7 °F 10.1 °F 1011.4 in NNW 3.2 mph 11.3 mph 90 % 0.0 in
16:00 11.6 °F 10.1 °F 1011.4 in NNW 3.2 mph 12.9 mph 91 % 0.0 in
16:05 11.5 °F 10.1 °F 1011.4 in NW 3.2 mph 12.9 mph 91 % 0.0 in
16:10 11.4 °F 10.1 °F 1011.4 in NW 3.2 mph 12.9 mph 92 % 0.0 in
16:15 11.4 °F 10.3 °F 1011.7 in NW 1.6 mph 11.3 mph 93 % 0.0 in
16:20 11.4 °F 10.3 °F 1011.4 in NW 3.2 mph 11.3 mph 93 % 0.0 in
16:25 11.4 °F 10.3 °F 1011.4 in NW 3.2 mph 9.7 mph 93 % 0.0 in
16:30 11.5 °F 10.4 °F 1011.7 in NW 3.2 mph 12.9 mph 93 % 0.0 in
16:35 11.5 °F 10.2 °F 1011.7 in NW 4.8 mph 14.5 mph 92 % 0.0 in
16:40 11.5 °F 10.2 °F 1011.7 in NW 3.2 mph 14.5 mph 92 % 0.0 in
16:45 11.5 °F 10.1 °F 1011.7 in NNW 3.2 mph 11.3 mph 91 % 0.0 in
16:50 11.6 °F 10.1 °F 1011.7 in NW 6.4 mph 17.7 mph 91 % 0.0 in
16:55 11.6 °F 9.9 °F 1012.1 in NW 3.2 mph 17.7 mph 90 % 0.0 in
17:00 11.6 °F 10.1 °F 1012.1 in NNW 4.8 mph 14.5 mph 91 % 0.0 in
17:05 11.6 °F 10.1 °F 1012.1 in NNW 3.2 mph 14.5 mph 91 % 0.0 in
17:10 11.6 °F 10.3 °F 1011.7 in North 1.6 mph 16.1 mph 92 % 0.0 in
17:15 11.7 °F 10.2 °F 1011.7 in NNW 6.4 mph 16.1 mph 91 % 0.0 in
17:20 11.9 °F 9.9 °F 1011.7 in NNW 6.4 mph 16.1 mph 88 % 0.0 in
17:25 12.0 °F 10.1 °F 1011.7 in NW 4.8 mph 16.1 mph 88 % 0.0 in
17:30 12.0 °F 10.1 °F 1012.1 in NW 6.4 mph 12.9 mph 88 % 0.0 in
17:35 11.9 °F 10.0 °F 1012.1 in NW 6.4 mph 17.7 mph 88 % 0.0 in
17:40 11.8 °F 10.1 °F 1012.1 in NW 4.8 mph 17.7 mph 89 % 0.0 in
17:45 11.9 °F 10.3 °F 1012.1 in WNW 3.2 mph 14.5 mph 90 % 0.0 in
17:50 12.0 °F 10.2 °F 1012.1 in NW 4.8 mph 11.3 mph 89 % 0.0 in
17:55 12.1 °F 10.1 °F 1012.1 in NW 1.6 mph 14.5 mph 88 % 0.0 in
18:00 12.1 °F 10.2 °F 1011.7 in NNW 4.8 mph 20.9 mph 88 % 0.0 in
18:05 12.1 °F 10.2 °F 1012.1 in NNW 3.2 mph 20.9 mph 88 % 0.0 in
18:10 12.2 °F 10.2 °F 1012.1 in NNW 3.2 mph 12.9 mph 88 % 0.0 in
18:15 12.3 °F 10.4 °F 1011.7 in NW 1.6 mph 9.7 mph 88 % 0.0 in
18:20 12.4 °F 10.2 °F 1012.1 in NW 6.4 mph 16.1 mph 86 % 0.0 in
18:25 12.4 °F 10.2 °F 1012.1 in NW 1.6 mph 16.1 mph 86 % 0.0 in
18:30 12.4 °F 10.1 °F 1012.1 in NNW 1.6 mph 11.3 mph 86 % 0.0 in
18:35 12.3 °F 10.1 °F 1012.1 in NW 4.8 mph 12.9 mph 86 % 0.0 in
18:40 12.3 °F 10.0 °F 1012.1 in NW 3.2 mph 12.9 mph 86 % 0.0 in
18:45 12.3 °F 10.2 °F 1012.1 in NNW 1.6 mph 11.3 mph 87 % 0.0 in
18:50 12.3 °F 10.1 °F 1012.1 in NW 3.2 mph 11.3 mph 86 % 0.0 in
18:55 12.3 °F 10.1 °F 1012.1 in NNW 4.8 mph 14.5 mph 86 % 0.0 in
19:00 12.3 °F 10.2 °F 1012.1 in NNW 1.6 mph 14.5 mph 87 % 0.0 in
19:05 12.3 °F 10.2 °F 1012.1 in NNW 1.6 mph 12.9 mph 87 % 0.0 in
19:10 12.2 °F 10.1 °F 1012.4 in NNW 3.2 mph 12.9 mph 87 % 0.0 in
19:15 12.1 °F 10.0 °F 1012.4 in NNW 1.6 mph 9.7 mph 87 % 0.0 in
19:20 12.0 °F 9.9 °F 1012.4 in NNW 3.2 mph 11.3 mph 87 % 0.0 in
19:25 12.0 °F 10.1 °F 1012.4 in NW 1.6 mph 11.3 mph 88 % 0.0 in
19:30 12.0 °F 10.1 °F 1012.4 in NW 1.6 mph 11.3 mph 88 % 0.0 in
19:35 12.0 °F 10.1 °F 1012.4 in NW 3.2 mph 11.3 mph 88 % 0.0 in
19:40 12.1 °F 10.1 °F 1012.4 in NW 1.6 mph 11.3 mph 88 % 0.0 in
19:45 12.1 °F 9.9 °F 1012.4 in NNW 1.6 mph 8.0 mph 87 % 0.0 in
19:50 12.1 °F 10.1 °F 1012.4 in WNW 1.6 mph 6.4 mph 88 % 0.0 in
19:55 12.1 °F 10.0 °F 1012.4 in NW 3.2 mph 8.0 mph 87 % 0.0 in
20:00 12.1 °F 9.8 °F 1012.4 in NW 3.2 mph 8.0 mph 86 % 0.0 in
20:05 12.1 °F 9.8 °F 1012.4 in North 1.6 mph 8.0 mph 86 % 0.0 in
20:10 12.2 °F 10.1 °F 1012.4 in Calm   6.4 mph 87 % 0.0 in
20:15 12.2 °F 9.9 °F 1012.4 in North 3.2 mph 8.0 mph 86 % 0.0 in
20:20 12.2 °F 9.9 °F 1012.4 in Calm   8.0 mph 86 % 0.0 in
20:25 12.3 °F 10.1 °F 1012.4 in NNW 4.8 mph 14.5 mph 86 % 0.0 in
20:30 12.3 °F 10.1 °F 1012.4 in NNW 3.2 mph 14.5 mph 86 % 0.0 in
20:35 12.3 °F 10.0 °F 1012.4 in NNW 1.6 mph 9.7 mph 86 % 0.0 in
20:40 12.3 °F 10.0 °F 1012.4 in NW 3.2 mph 12.9 mph 86 % 0.0 in
20:45 12.2 °F 9.9 °F 1012.4 in NW 3.2 mph 12.9 mph 86 % 0.0 in
20:50 12.2 °F 9.9 °F 1012.4 in NW 1.6 mph 12.9 mph 86 % 0.0 in
20:55 12.1 °F 9.9 °F 1012.4 in NW 1.6 mph 8.0 mph 87 % 0.0 in
21:00 12.0 °F 10.1 °F 1012.4 in NNW 1.6 mph 11.3 mph 88 % 0.0 in
21:05 11.9 °F 10.0 °F 1012.4 in NNW 1.6 mph 11.3 mph 88 % 0.0 in
21:10 11.9 °F 10.1 °F 1012.4 in NW 3.2 mph 9.7 mph 89 % 0.0 in
21:15 11.8 °F 10.0 °F 1012.8 in NW 1.6 mph 9.7 mph 89 % 0.0 in
21:20 11.8 °F 10.0 °F 1012.8 in NW 1.6 mph 9.7 mph 89 % 0.0 in
21:25 11.7 °F 9.9 °F 1012.4 in Calm   9.7 mph 89 % 0.0 in
21:30 11.7 °F 10.1 °F 1012.4 in Calm   3.2 mph 90 % 0.0 in
21:35 11.7 °F 10.1 °F 1012.8 in Calm   3.2 mph 90 % 0.0 in
21:40 11.6 °F 10.0 °F 1012.8 in Calm   6.4 mph 90 % 0.0 in
21:45 11.6 °F 10.0 °F 1012.8 in NW 1.6 mph 6.4 mph 90 % 0.0 in
21:50 11.6 °F 9.9 °F 1012.8 in Calm   6.4 mph 90 % 0.0 in
21:55 11.6 °F 10.1 °F 1012.8 in Calm   4.8 mph 91 % 0.0 in
22:00 11.6 °F 10.1 °F 1012.8 in Calm   3.2 mph 91 % 0.0 in
22:05 11.5 °F 10.1 °F 1012.4 in Calm   3.2 mph 91 % 0.0 in
22:10 11.5 °F 10.1 °F 1012.8 in Calm     91 % 0.0 in
22:15 11.4 °F 10.0 °F 1012.4 in Calm   1.6 mph 91 % 0.0 in
22:20 11.4 °F 9.9 °F 1012.4 in Calm   1.6 mph 91 % 0.0 in
22:25 11.3 °F 9.9 °F 1012.4 in Calm     91 % 0.0 in
22:30 11.3 °F 9.9 °F 1012.8 in Calm   3.2 mph 91 % 0.0 in
22:35 11.3 °F 9.9 °F 1012.8 in Calm   3.2 mph 91 % 0.0 in
22:40 11.2 °F 9.8 °F 1012.8 in Calm   3.2 mph 91 % 0.0 in
22:45 11.2 °F 9.8 °F 1012.8 in NW 1.6 mph 9.7 mph 91 % 0.0 in
22:50 11.2 °F 9.8 °F 1012.8 in Calm   9.7 mph 91 % 0.0 in
22:55 11.2 °F 9.8 °F 1012.8 in NW 1.6 mph 9.7 mph 91 % 0.0 in
23:00 11.2 °F 9.6 °F 1012.8 in Calm   9.7 mph 90 % 0.0 in
23:05 11.1 °F 9.6 °F 1012.8 in Calm   4.8 mph 90 % 0.0 in
23:10 11.1 °F 9.5 °F 1012.8 in Calm   4.8 mph 90 % 0.0 in
23:15 11.1 °F 9.5 °F 1012.8 in NW 1.6 mph 6.4 mph 90 % 0.0 in
23:20 11.1 °F 9.5 °F 1012.8 in Calm   6.4 mph 90 % 0.0 in
23:25 11.0 °F 9.4 °F 1012.8 in NW 1.6 mph 6.4 mph 90 % 0.0 in
23:30 11.0 °F 9.4 °F 1012.8 in NW 3.2 mph 8.0 mph 90 % 0.0 in
23:35 11.0 °F 9.4 °F 1012.8 in NW 1.6 mph 8.0 mph 90 % 0.0 in
23:40 10.9 °F 9.4 °F 1012.8 in NW 1.6 mph 8.0 mph 90 % 0.0 in
23:45 10.9 °F 9.4 °F 1012.8 in Calm   8.0 mph 90 % 0.0 in
23:50 10.9 °F 9.3 °F 1012.8 in NW 1.6 mph 4.8 mph 90 % 0.0 in
23:55 10.8 °F 9.3 °F 1012.8 in NW 1.6 mph 6.4 mph 90 % 0.0 in
Esan sääasema
Terveisin Weather Underground - 3.75 mb

Alkuperäinen skripti  Jim McMurry - jmcmurry@mwt.net Sovitettu myös templatelle  Wim van der Kuil - Leuven-Template.eu

Laitteet joita käytämme:

Sääasema
Davis VP2

Sääasemaohjelma
Cumulus

Sääaseman tietokone
Asus EeePC

Palveluntarjoaja
Suncomet

Davis VP2

Cumulus

Asus EeePC

Suncomet